GEFSSGP_500_meanwind_078.txt.gz
Wind_Speed
59 61 61 61 61 63 60 54 49 47 46 45 44 43 40 38 35 32 30 28 25 23 21 19 17 15 13 11 10 10 10 9 9 8 8 8 7 7 6 6 6 5 5 5 4 4 3 2 2
60 62 62 63 64 64 60 53 50 48 48 47 46 44 42 39 35 33 31 30 27 25 22 20 18 16 15 13 12 11 11 10 10 9 9 8 8 8 7 7 7 6 6 6 5 4 4 3 3
60 62 63 64 65 63 57 52 50 50 49 49 48 46 43 39 35 34 33 31 29 27 24 22 20 18 16 14 13 13 12 12 11 11 10 10 9 9 8 8 8 7 7 6 6 5 5 4 4
59 62 64 65 65 60 56 52 51 52 52 50 48 47 45 40 37 36 35 32 30 29 26 23 21 19 17 16 15 14 13 13 12 12 12 11 11 10 10 9 8 8 8 7 7 6 6 5 4
58 61 65 66 63 59 56 54 53 53 53 50 48 47 45 41 40 39 37 34 31 30 27 24 22 20 18 17 16 15 15 14 14 14 13 13 12 12 11 10 10 9 9 8 8 7 6 6 6
59 62 65 65 61 59 57 55 54 54 54 52 49 47 45 43 42 41 38 36 33 30 28 25 23 21 19 18 17 16 16 16 16 15 15 14 14 13 12 11 11 11 10 9 9 8 7 7 6
59 62 63 62 60 60 58 56 55 54 55 54 52 50 47 44 43 41 39 37 34 31 29 26 24 22 20 19 18 17 17 17 17 17 16 16 15 15 14 13 12 11 11 10 10 9 8 8 8
57 60 62 62 61 60 58 57 56 55 54 54 52 51 49 44 43 40 39 36 35 32 30 28 25 23 21 20 19 18 18 18 18 18 18 17 17 16 15 14 13 13 12 11 11 10 10 9 9
57 60 62 61 60 58 57 57 57 56 56 55 53 51 49 47 43 40 38 37 36 34 32 29 26 23 21 20 19 18 18 18 19 19 19 18 18 17 16 15 14 13 13 12 12 11 11 10 10
57 60 60 58 57 57 55 56 57 57 57 56 53 52 50 49 45 40 37 37 36 35 33 30 27 24 23 21 20 19 18 18 19 19 19 19 18 17 17 16 15 14 14 13 13 13 12 12 12
57 57 57 58 57 57 56 55 56 57 57 56 52 50 50 49 47 42 38 37 36 35 34 31 27 25 24 22 21 20 19 19 19 20 20 20 19 19 18 17 16 15 15 14 14 14 14 14 14
55 55 57 57 57 56 56 55 56 57 56 55 53 51 49 48 46 43 40 38 37 35 34 32 29 26 25 23 21 21 20 20 20 20 21 21 21 20 20 19 18 17 17 16 16 16 16 16 17
55 54 56 57 57 56 55 56 56 55 55 55 53 52 51 49 47 45 44 40 38 37 34 32 30 28 26 24 23 21 21 20 21 21 21 21 22 22 21 21 20 19 19 19 18 18 19 19 19
52 54 55 55 56 55 54 55 57 56 55 54 52 51 51 50 48 47 44 41 39 37 35 33 32 30 28 26 24 23 22 22 21 22 22 23 23 23 23 23 23 22 21 21 21 21 21 21 22
52 53 55 55 55 53 53 54 55 55 55 54 53 51 50 50 49 47 45 43 41 38 36 34 33 32 31 28 26 25 24 23 23 23 23 24 25 25 25 25 25 25 24 24 23 23 24 24 24
51 52 54 54 55 54 54 52 53 54 54 53 53 52 51 50 49 47 46 45 43 41 37 36 35 34 32 30 28 26 26 25 25 25 25 25 26 27 27 27 28 27 26 26 26 26 26 27 27
49 50 53 52 53 53 52 52 53 53 53 52 52 51 51 50 50 48 46 44 44 42 40 37 37 36 34 33 32 30 29 29 28 28 28 28 29 29 29 30 30 29 29 29 29 29 29 30 30
45 47 49 51 53 50 49 50 51 52 52 51 50 50 51 50 50 49 47 45 44 43 42 41 39 37 37 36 34 32 32 31 30 30 30 31 31 31 31 32 32 32 32 32 32 32 32 33 33
41 43 45 48 50 49 48 49 50 51 50 49 49 49 49 49 49 49 48 46 44 43 43 41 41 39 39 38 37 36 35 34 33 33 33 34 34 34 34 34 34 34 35 35 35 35 35 35 36
37 39 43 46 47 48 46 47 47 49 50 48 47 47 47 47 48 48 48 47 46 45 43 42 41 41 40 40 39 39 39 38 37 35 35 36 37 36 36 36 37 37 37 37 38 38 38 39 39
33 34 38 42 44 45 47 45 46 47 48 48 45 44 46 46 45 46 46 46 45 44 44 43 43 43 41 41 42 41 41 40 40 39 39 39 40 39 38 39 39 39 39 39 40 41 41 41 41
30 31 32 36 40 43 45 43 44 45 46 46 42 39 41 44 44 44 44 44 44 44 44 44 44 44 43 43 43 43 43 42 42 43 43 43 42 42 42 42 42 42 42 42 43 43 43 43 42
25 29 29 30 33 36 41 40 41 42 42 42 41 38 37 39 41 41 42 43 43 44 45 44 44 44 44 44 44 44 44 44 44 45 45 45 44 44 44 44 45 44 45 45 45 44 44 44 44
22 24 26 27 28 30 33 36 37 38 39 39 39 38 36 37 39 40 41 42 43 43 44 44 44 44 44 45 45 45 45 46 46 47 47 47 47 47 47 47 47 46 46 46 47 47 47 47 47
22 22 23 25 26 27 28 30 31 31 33 34 36 35 34 35 36 38 40 41 41 42 43 43 44 45 45 45 46 46 46 46 47 47 48 48 48 49 49 49 49 49 49 49 49 49 49 49 48
20 20 22 23 23 23 25 26 26 27 29 31 33 34 34 34 35 36 37 39 40 41 42 43 43 44 45 45 46 47 47 48 48 49 49 49 50 50 50 50 51 51 51 51 51 51 51 50 49
18 18 18 20 21 20 21 23 24 25 26 27 30 32 34 34 34 36 37 38 40 41 42 43 44 45 45 45 45 46 46 47 48 49 50 50 51 51 51 51 52 52 52 53 52 52 51 51 51
17 16 17 17 17 18 19 19 21 23 24 25 28 31 32 33 34 34 35 36 38 40 42 42 43 43 44 45 46 47 48 48 49 50 51 52 52 52 52 51 52 52 52 52 52 52 51 51 51
17 17 16 16 17 17 18 19 19 21 23 25 27 29 31 32 33 34 35 36 37 38 39 41 42 43 44 45 46 47 48 48 49 50 51 51 52 52 53 53 53 53 52 52 52 52 52 51 51
16 17 15 16 17 17 17 18 19 20 21 23 25 28 30 31 32 33 34 35 36 37 38 39 40 42 43 44 44 45 46 47 48 49 49 50 51 52 52 53 53 53 53 53 52 52 52 51 51

GEFSSGP_500_meanwind_084.txt.gz
Wind_Speed
52 55 57 61 65 70 70 67 63 60 57 55 54 54 53 50 47 43 40 36 33 30 27 25 22 20 18 17 15 14 12 11 10 10 9 9 8 7 7 7 6 6 6 6 6 6 6 5 5
51 54 58 62 67 71 70 66 63 60 58 57 56 55 54 51 48 44 41 38 35 32 29 27 25 22 20 18 17 15 14 13 12 11 10 10 9 8 8 7 7 7 7 7 7 7 7 6 6
51 55 59 63 69 71 67 63 60 58 59 59 58 56 55 51 48 45 42 40 37 34 31 29 27 24 22 21 19 17 15 14 13 13 11 11 10 9 8 8 8 8 8 8 8 8 8 7 7
51 55 59 64 68 67 64 59 59 58 60 61 59 57 56 52 49 46 44 42 39 36 34 31 29 26 25 23 21 19 17 16 15 14 13 12 11 10 9 9 9 9 9 9 9 9 9 8 8
51 56 60 65 66 64 61 59 60 60 60 61 60 58 56 52 51 48 46 43 40 38 36 33 31 28 26 25 23 21 19 18 16 16 14 14 13 12 11 10 10 10 10 10 10 10 9 9 8
52 56 61 63 62 60 58 58 61 61 59 59 60 58 56 52 50 49 47 45 43 40 38 35 33 30 28 27 25 23 21 19 18 17 16 15 14 13 13 12 11 11 11 11 11 11 10 10 9
53 56 59 59 58 58 56 57 61 62 60 59 58 58 56 53 51 49 48 47 45 43 40 37 35 32 30 28 26 25 23 21 20 18 17 16 16 15 14 13 13 12 12 12 12 12 11 11 10
52 55 58 57 57 56 55 56 59 61 60 59 58 57 56 55 51 49 48 47 46 44 42 39 37 34 32 30 28 26 24 23 21 20 19 18 17 17 16 15 14 14 14 13 13 13 12 12 12
50 54 56 54 55 52 55 56 57 59 60 59 58 57 55 53 52 49 47 48 47 46 44 42 39 36 33 31 28 27 25 23 22 21 20 18 18 18 17 16 16 15 15 14 14 14 14 13 13
50 52 51 49 51 52 54 56 56 58 59 59 58 57 55 52 53 50 47 48 47 46 45 43 40 37 34 32 29 27 25 24 22 21 20 19 19 18 18 17 17 17 16 16 15 15 15 15 14
47 48 48 49 50 51 53 56 57 57 58 57 58 57 55 53 51 49 46 47 47 48 47 44 42 39 36 33 30 28 26 25 23 22 21 20 20 20 19 19 18 18 18 17 17 17 16 16 16
46 46 46 48 50 50 52 55 58 57 56 56 56 56 55 53 51 48 45 45 47 48 47 45 43 41 38 35 32 29 27 25 24 22 21 21 21 21 20 20 19 19 19 19 18 18 18 18 18
42 45 45 47 50 50 51 55 56 57 56 56 56 56 54 51 49 48 46 45 45 45 45 45 44 42 39 37 34 31 28 26 24 23 22 21 21 21 21 21 21 21 21 21 21 20 20 20 20
36 43 44 46 47 48 49 52 55 56 57 56 56 55 55 51 48 48 45 45 42 43 44 45 43 42 40 38 35 32 29 27 25 23 23 22 22 22 22 22 22 22 22 23 23 23 23 23 23
33 39 42 44 46 46 45 49 54 54 56 56 55 55 54 52 48 47 43 42 41 40 39 41 42 41 39 37 35 33 30 28 27 25 24 23 23 23 23 24 24 24 24 25 25 25 26 26 26
32 36 40 43 45 45 44 46 51 53 55 56 56 55 52 51 48 46 44 42 41 39 37 39 39 39 39 37 36 35 33 30 29 27 26 25 24 24 24 24 25 25 25 25 26 27 28 28 29
29 34 38 40 43 44 44 44 48 51 54 55 55 55 53 51 48 45 44 42 40 39 38 38 38 37 37 37 36 36 34 32 30 28 27 27 26 25 25 26 26 25 26 27 28 29 30 30 31
25 29 35 37 39 41 43 43 47 50 53 54 54 54 53 50 48 45 42 40 39 38 40 39 38 37 37 36 36 35 34 33 31 30 29 28 28 27 27 27 27 27 28 28 29 31 32 33 34
22 25 32 34 34 37 41 43 43 49 52 54 54 53 52 49 47 45 42 40 37 36 38 39 37 35 35 36 35 35 34 34 33 31 30 28 28 29 29 30 30 30 30 31 32 33 34 35 36
20 23 28 31 31 35 38 40 40 45 50 53 52 50 50 49 47 45 43 41 37 36 35 34 35 35 35 35 35 33 33 34 34 33 32 31 31 31 31 32 33 33 33 33 34 35 36 37 38
19 21 24 26 28 31 34 38 38 42 46 50 50 49 47 46 46 46 43 40 39 37 36 34 34 35 35 35 34 34 34 34 34 35 34 34 35 34 34 34 34 34 34 34 36 36 38 38 39
15 18 21 23 24 27 30 33 35 38 43 45 47 48 47 47 45 44 42 41 40 39 37 35 35 36 36 36 35 35 35 34 34 34 35 35 35 35 34 34 35 35 35 36 37 38 39 40 41
13 15 17 20 22 23 27 27 31 33 37 41 43 45 44 44 44 43 41 41 41 41 39 38 37 36 36 36 36 35 35 35 35 35 36 36 36 36 36 36 37 37 38 39 40 40 40 41 42
10 12 14 16 17 19 21 23 26 31 33 37 40 43 42 43 43 43 42 41 41 40 40 39 39 39 38 37 36 37 37 36 37 37 36 37 37 37 37 38 39 40 41 41 41 42 42 43 44
9 10 11 13 14 15 17 19 21 24 29 32 34 38 41 40 40 40 40 40 40 40 40 39 39 39 39 39 39 40 39 39 38 38 38 38 39 40 40 40 41 42 42 43 44 45 45 46 46
9 9 9 9 11 12 14 15 18 19 22 26 29 33 36 37 37 37 37 38 38 38 39 39 40 40 40 41 41 41 40 40 40 40 40 41 42 42 43 44 44 45 45 47 48 48 48 48 49
9 8 7 7 8 9 11 12 14 15 18 21 25 28 31 34 35 34 34 36 38 38 38 39 39 40 41 41 42 42 42 42 41 42 42 43 44 45 46 47 47 47 48 49 49 49 49 49 49
8 8 7 7 7 8 10 11 12 13 15 18 21 25 28 29 32 35 35 34 35 36 37 38 39 40 40 41 42 42 42 42 43 43 43 44 45 46 46 47 48 48 49 50 50 51 51 51 50
7 7 6 6 6 7 8 10 11 12 15 17 19 21 25 27 30 32 33 34 34 35 36 37 38 39 40 41 41 42 43 44 44 45 45 46 47 47 48 48 49 49 49 50 50 51 51 51 52
7 7 6 6 6 6 7 8 10 11 13 15 18 20 22 25 27 29 32 33 34 35 37 38 39 40 41 41 42 43 44 45 46 46 47 47 48 49 49 50 50 50 51 51 52 52 52 51 51

GEFSSGP_500_meanwind_090.txt.gz
Wind_Speed
49 50 50 50 53 55 54 53 53 53 52 52 52 52 54 55 53 52 49 46 42 39 36 33 31 29 26 24 22 20 19 18 17 16 15 14 13 12 10 9 8 7 6 5 4 4 3 3 3
51 52 52 54 56 58 56 55 56 54 53 53 53 54 55 56 55 53 51 48 45 42 39 36 33 31 29 26 24 22 21 20 19 18 17 15 14 13 12 10 9 8 7 6 6 5 4 4 4
53 54 55 57 59 58 56 57 57 56 54 54 55 57 58 58 56 55 52 50 47 44 42 39 36 33 31 28 26 24 22 21 20 20 18 17 16 15 13 12 10 9 8 8 7 6 5 5 5
54 56 58 61 61 58 57 58 59 57 56 56 57 59 60 59 58 56 54 52 50 47 44 41 39 36 33 31 29 27 25 23 22 21 20 18 17 16 15 13 12 11 10 9 8 7 7 6 6
56 57 59 62 61 58 58 58 59 57 55 56 59 61 60 60 59 58 56 54 52 50 47 44 41 38 36 33 31 29 27 25 24 23 22 20 19 18 16 14 13 12 11 10 9 9 8 8 8
57 58 60 61 59 57 58 57 58 57 56 57 59 62 61 61 60 59 57 56 55 52 50 47 44 41 38 36 33 31 29 27 26 25 23 22 20 19 18 16 15 14 13 12 11 10 10 9 9
56 57 58 58 58 57 56 55 56 55 56 57 59 62 63 61 62 61 59 57 56 54 52 50 47 44 41 38 36 33 31 29 28 27 25 24 22 21 20 18 17 16 14 13 13 12 11 11 10
54 56 56 55 55 55 53 53 54 55 56 57 60 63 63 62 62 63 60 59 57 56 54 52 50 47 44 41 38 35 33 32 30 29 28 26 24 23 21 20 19 17 16 15 15 14 13 13 12
52 54 53 51 51 51 52 53 53 54 56 58 60 63 62 63 62 63 62 59 57 57 56 54 52 49 46 44 41 38 36 34 32 31 30 28 26 24 23 22 21 19 18 17 16 16 15 15 14
48 51 49 47 47 48 50 52 52 53 56 58 60 62 63 62 62 63 64 61 58 56 56 55 54 52 49 46 43 40 38 36 34 32 31 29 28 26 24 23 22 21 20 19 18 18 17 17 16
44 44 43 43 45 46 48 50 51 54 55 56 58 60 62 62 62 61 62 60 59 57 55 55 55 53 50 47 44 42 39 37 36 34 33 31 29 27 26 25 24 23 22 21 20 19 19 19 18
39 37 37 38 41 43 45 47 50 51 53 55 58 60 61 60 63 61 59 57 55 56 55 55 54 53 51 49 46 43 41 39 37 36 34 33 31 29 28 27 25 24 23 22 22 21 21 21 20
31 30 31 33 36 40 43 45 48 49 51 54 56 59 60 62 61 60 57 57 56 55 54 56 54 53 52 50 48 45 42 40 39 37 35 34 33 31 29 28 27 26 25 24 24 23 23 22 22
24 25 27 28 29 35 41 43 46 46 48 51 53 57 59 61 60 56 54 55 54 54 53 55 54 54 53 51 49 46 44 42 41 39 37 36 34 32 31 29 28 28 26 26 25 25 25 25 24
21 22 23 25 26 29 35 40 42 43 46 49 51 54 58 60 59 57 52 51 52 51 51 54 54 54 54 53 51 49 47 45 43 41 39 38 36 34 33 31 30 29 28 27 27 27 27 26 26
18 19 20 21 23 26 32 34 36 41 43 46 50 53 56 58 56 55 52 50 50 47 48 51 52 52 54 54 53 50 49 47 45 43 41 40 38 36 34 33 32 30 29 29 29 29 28 28 28
14 16 17 20 21 23 27 29 35 39 42 44 47 51 54 54 53 51 49 45 47 45 45 47 51 50 51 53 55 53 51 49 47 45 43 42 40 38 36 34 33 32 31 31 31 30 29 29 29
12 13 14 16 19 20 23 26 33 37 40 43 46 49 52 51 50 48 46 44 43 43 42 46 48 49 49 51 54 54 52 50 49 47 45 44 41 39 37 35 34 33 33 32 32 31 31 31 31
8 9 10 13 15 17 19 25 31 34 37 41 44 48 50 48 47 47 44 44 41 39 40 44 47 48 49 49 50 50 50 50 48 46 45 44 42 40 37 37 36 35 34 34 33 33 33 32 32
4 5 8 10 11 12 14 22 28 31 34 38 42 45 47 48 49 46 43 44 42 39 40 43 44 46 46 48 46 45 47 47 47 46 45 44 43 40 38 37 37 37 37 36 35 35 34 34 34
4 4 6 8 9 10 13 17 23 27 32 36 38 41 43 46 48 45 41 41 41 38 37 40 43 43 43 44 43 43 45 46 46 46 45 44 43 41 40 40 40 39 37 36 36 36 35 35 35
5 4 4 6 7 9 12 14 20 20 26 32 36 38 39 41 44 42 40 38 38 37 37 39 39 40 41 43 44 42 43 44 45 46 45 45 44 43 41 40 40 39 37 36 36 36 36 36 34
6 5 5 6 6 6 10 12 17 17 20 27 33 35 36 37 40 39 37 35 34 35 35 37 39 39 41 43 43 42 41 41 42 44 43 42 42 43 42 41 40 39 37 36 36 36 34 33 33
7 7 8 7 6 6 9 12 15 15 17 23 29 32 33 35 35 35 33 33 32 32 34 35 34 34 35 38 39 41 41 41 40 40 40 39 40 41 40 40 40 39 38 37 37 36 34 33 34
10 10 10 8 8 8 9 10 12 13 15 19 24 28 30 32 32 31 30 29 29 28 30 32 31 31 31 33 34 35 36 38 37 38 39 39 40 40 41 41 40 39 37 37 36 36 35 34 35
12 12 12 11 10 10 11 10 11 12 13 15 18 22 26 27 29 30 28 27 28 27 27 28 29 29 30 31 31 32 33 34 35 35 36 36 36 36 37 37 37 37 37 36 36 35 35 36 37
13 13 13 14 13 13 13 11 11 11 11 12 15 17 20 22 24 26 27 27 27 28 28 28 27 28 28 29 29 30 33 34 35 36 36 36 35 35 36 36 36 37 38 38 37 37 38 39 40
13 13 14 15 16 15 13 12 11 11 10 10 13 15 17 18 20 22 23 24 24 25 26 28 29 29 28 28 29 30 30 32 33 34 34 34 34 34 35 36 37 37 38 39 40 41 41 42 43
12 13 14 14 14 14 14 13 12 12 10 9 10 13 15 15 16 17 20 23 24 25 25 27 28 29 30 30 31 32 32 32 33 34 34 35 35 36 36 37 37 38 40 41 42 42 44 44 44
12 12 13 14 14 12 12 12 12 11 10 9 9 11 12 13 14 16 18 20 22 25 26 28 29 30 31 31 32 33 34 35 36 37 37 37 38 38 40 41 41 41 42 43 43 44 45 46 46

GEFSSGP_500_meanwind_096.txt.gz
Wind_Speed
46 46 47 47 49 51 50 46 42 40 38 38 40 40 39 40 42 44 44 44 40 36 37 38 37 35 33 30 28 27 25 23 21 20 19 17 16 15 14 14 12 11 10 9 8 7 6 5 5
48 48 49 50 52 53 50 46 44 42 41 42 42 43 43 42 44 45 45 45 42 38 38 40 40 38 36 33 31 29 28 25 24 22 21 19 18 17 16 15 14 13 12 10 9 8 8 7 6
50 50 51 53 55 53 50 47 46 46 45 46 45 45 45 45 45 46 47 46 44 41 40 41 42 41 38 36 33 32 30 28 26 24 23 22 20 19 18 17 16 15 13 12 11 10 9 8 8
51 52 54 56 55 52 50 48 48 49 49 49 48 47 47 47 46 47 47 46 46 45 42 43 44 43 41 39 36 34 32 30 28 27 25 24 22 20 19 19 18 16 15 14 13 12 11 10 9
52 53 55 56 54 52 51 50 49 51 53 51 51 49 49 49 48 49 48 48 47 47 45 45 46 46 44 42 39 36 34 32 31 29 27 26 24 22 21 20 20 18 17 16 15 14 13 12 11
52 53 55 55 53 52 52 52 53 52 54 54 54 52 50 50 50 49 48 50 50 49 48 48 48 48 47 44 42 39 37 35 33 32 30 28 26 24 23 22 21 20 18 17 16 15 14 13 12
52 53 53 53 53 53 53 54 55 55 55 56 55 56 53 52 51 51 50 50 51 51 50 51 51 50 49 47 45 42 39 37 36 34 32 30 28 27 25 24 23 22 20 19 18 17 16 15 14
51 53 53 52 53 54 54 56 56 57 56 56 57 56 54 54 53 52 51 51 51 52 52 52 53 53 52 50 47 44 42 40 39 37 34 32 30 29 27 25 24 23 22 21 20 19 18 16 15
50 52 51 51 53 54 56 57 58 59 59 58 58 57 56 56 54 53 53 52 52 53 54 54 55 54 54 52 50 47 45 43 41 39 37 34 32 30 29 27 26 25 24 23 22 20 19 18 17
48 49 48 50 52 54 56 58 58 59 60 59 59 59 58 57 55 54 54 53 52 53 55 56 56 55 56 55 52 50 47 45 43 41 39 36 34 32 31 29 28 27 26 25 23 22 21 20 19
46 46 47 49 51 53 54 56 57 59 58 57 58 58 57 58 56 54 54 54 54 55 55 56 57 56 56 57 55 53 50 48 45 43 41 39 36 35 33 31 30 29 28 26 25 24 23 22 21
45 44 45 47 48 50 51 53 54 56 55 56 57 57 57 58 56 54 54 54 55 56 57 57 58 56 55 56 56 55 53 50 48 46 43 41 38 36 35 33 32 31 29 28 27 26 25 24 23
41 40 41 42 43 44 46 48 49 50 51 52 54 55 56 58 59 58 55 55 55 57 58 59 59 58 56 56 57 57 55 53 50 48 45 43 40 39 37 35 34 33 31 30 28 27 27 26 25
36 36 35 35 36 38 40 41 44 44 48 50 51 53 55 56 58 58 57 56 55 56 57 59 59 58 56 55 54 55 57 55 53 50 47 45 43 41 39 37 36 34 33 32 30 29 28 27 27
31 30 29 28 30 31 35 35 35 39 43 45 46 48 52 54 56 57 57 57 56 57 58 57 59 59 57 55 53 53 56 57 55 52 50 47 45 43 41 39 38 36 35 34 32 31 30 29 29
24 24 23 23 26 28 31 29 28 33 38 40 42 43 46 50 52 55 56 58 58 56 57 57 56 57 57 57 53 53 55 57 56 54 51 49 47 45 43 41 40 38 37 35 34 33 32 31 30
18 17 18 19 21 23 24 24 25 29 32 34 37 40 42 46 49 52 55 58 57 56 56 56 56 56 56 57 54 53 53 55 56 55 53 51 49 47 45 43 42 41 39 37 36 35 34 33 32
12 12 13 14 16 17 18 20 21 23 26 28 30 34 38 42 45 47 50 54 55 56 54 54 54 54 54 54 54 52 51 53 56 55 54 52 50 48 46 45 44 43 41 40 39 37 36 34 33
8 8 10 11 13 13 14 14 15 17 19 20 23 26 31 36 39 41 45 50 52 52 51 52 54 52 50 52 52 51 50 50 54 55 54 53 51 49 48 46 46 45 43 41 41 39 38 36 35
7 8 9 9 10 10 8 8 10 11 12 13 17 20 24 30 34 36 41 45 48 48 49 50 50 48 48 49 49 47 47 48 51 54 54 53 52 50 49 48 47 45 43 43 42 41 39 37 36
5 5 5 6 6 5 5 5 4 6 8 10 14 16 20 24 29 34 39 40 41 43 44 48 49 48 46 45 46 47 47 48 49 51 52 52 52 52 51 50 48 47 45 44 43 41 40 38 37
3 2 2 2 2 3 3 5 2 2 5 8 10 12 17 20 25 28 34 36 35 37 39 41 43 45 46 44 44 45 46 47 48 49 49 50 51 52 52 50 49 48 46 44 44 43 42 39 38
2 3 2 3 3 3 3 3 3 3 3 4 6 8 12 17 19 22 26 30 31 34 34 35 38 40 40 41 43 42 42 43 44 46 46 45 45 47 48 49 49 48 47 46 44 43 42 40 39
6 6 6 6 5 4 4 4 5 5 5 5 7 8 10 13 14 17 20 23 27 29 31 33 36 36 37 37 39 41 40 39 41 42 43 43 44 45 46 48 48 47 47 45 44 43 42 41 41
7 7 7 7 6 6 6 6 7 8 8 8 8 8 9 10 11 13 15 16 19 22 26 28 29 28 30 34 36 38 38 37 39 40 41 43 44 44 45 46 46 45 45 44 44 43 42 41 41
7 8 9 9 8 8 8 9 10 10 10 10 10 9 8 7 8 9 9 10 12 14 17 20 23 23 24 27 31 34 36 36 36 37 39 41 42 42 43 43 44 45 45 44 44 44 43 43 44
9 10 11 11 10 10 11 12 12 12 12 12 11 9 8 8 8 7 7 9 11 11 12 13 15 20 21 21 23 29 33 35 36 37 37 38 39 40 41 41 42 42 43 43 44 44 44 44 45
10 11 12 12 13 12 12 12 12 13 13 13 13 13 11 11 10 8 6 7 9 9 10 10 12 14 16 17 18 22 27 30 33 35 36 36 37 39 42 43 42 42 42 42 44 44 43 43 44
10 10 11 12 12 12 13 13 13 13 13 14 14 14 14 13 11 9 7 6 6 7 7 9 10 12 14 15 15 17 21 24 27 30 30 31 32 33 35 37 38 40 42 43 43 42 41 42 43
10 10 10 11 13 13 13 13 13 13 13 13 13 13 13 13 11 9 6 5 4 6 7 7 8 9 11 12 13 15 18 21 24 26 29 31 33 34 35 36 37 38 40 40 41 41 41 41 43